Regional Weather Roundup
Issued by NWS

Home | Current Version | Previous Version | Graphics & Text | Print | Product List | Glossary On
Versions: 1 2 3 4 5 6 7 8 9 10 11 12 13 14 15 16 17 18 19 20 21 22 23 24 25 26 27 28 29 30 31 32 33 34 35 36 37 38 39 40 41 42 43 44 45 46 47 48 49 50
000
ASUS43 KIND 280909
RWRIN

WEATHER ROUNDUP FOR INDIANA
NATIONAL WEATHER SERVICE INDIANAPOLIS IN
500 AM EDT THU APR 28 2016

NOTE: "FAIR" INDICATES FEW OR NO CLOUDS BELOW 12,000 FEET WITH NO
SIGNIFICANT WEATHER AND/OR OBSTRUCTIONS TO VISIBILITY.

* - STATION DOES NOT REPORT WEATHER SUCH AS PRECIPITATION OR FOG.

+ - STATION NOT QUALITY CONTROLLED BY THE NATIONAL WEATHER SERVICE.
    USE DATA WITH CAUTION...ESPECIALLY DEWPOINT AND RELATIVE
    HUMIDITY OBSERVATIONS.

INZ001>003-010>013-019-020-281000-
NORTHWEST INDIANA

CITY           SKY/WX    TMP DP  RH WIND       PRES   REMARKS
GARY /AIRPORT/ CLOUDY    48  48 100 CALM      29.83R
KNOX *+        CLOUDY    45  45 100 E12       29.82R
LA PORTE +     CLOUDY    48  42  79 E16G24    29.82S
MICHIGAN CITY+ CLOUDY    46  39  76 SE13G21   29.81S
MONTICELLO +   CLOUDY    46  41  84 E12       29.79S
RENSSELAER +   CLOUDY    46  45  93 E13       29.80R
VALPARAISO     CLOUDY    46  42  86 E12       29.82R

$$

LMZ046-743>745-281000-
SOUTHERN LAKE MICHIGAN

STATION/POSITION TIME  TEMP    WIND        PRES    WAVE
                       AIR SEA DIR/SP/G            HT
                 (UTC) (F)     (DEG/KT/KT) (MB)    (FT)
BURNS HARBOR     0805   48     110/ 10/ 17 1009.5S
MICHIGAN CITY    0800   47      90/ 13/ 18   N/A

$$

INZ004-005-014>016-021>024-281000-
NORTH CENTRAL INDIANA

CITY           SKY/WX    TMP DP  RH WIND       PRES   REMARKS
GOSHEN         LGT RAIN  44  39  82 E16G23    29.84F
LOGANSPORT +   CLOUDY    45  39  81 E12       29.82R
PERU/GRISSOM   CLOUDY    45  43  92 E13G21    29.80R
ROCHESTER +    CLOUDY    46  43  87 E12       29.84R
SOUTH BEND     CLOUDY    45  40  82 E14G22    29.84S
WARSAW +       CLOUDY    43  39  87 E15       29.83F

$$

INZ006>009-017-018-025>027-281000-
NORTHEAST INDIANA

CITY           SKY/WX    TMP DP  RH WIND       PRES   REMARKS
ANGOLA *+      CLOUDY    39  36  87 E15       29.86S
AUBURN +       RAIN      43  37  81 E14G20    29.85F
FORT WAYNE     LGT RAIN  43  39  86 E16       29.85R
HUNTINGTON +   CLOUDY   N/A N/A N/A E9        29.83F

$$

INZ028-029-035-036-043>045-051>053-281000-
WEST CENTRAL INDIANA

CITY           SKY/WX    TMP DP  RH WIND       PRES   REMARKS
CRAWFORDSVL +  CLOUDY    53  53 100 W26G32    29.81R
GREENCASTLE +  LGT RAIN  59  59 100 S7        29.75F
LAFAYETTE      LGT RAIN  47  44  90 S8        29.83R
TERRE HAUTE    TSTM      58  55  90 NW17G29   29.76R FOG

$$

INZ030>032-037>040-046>048-054>057-064-065-281000-
CENTRAL INDIANA

CITY           SKY/WX    TMP DP  RH WIND       PRES   REMARKS
CP ATTERBURY + CLOUDY    59  59 100 SE3       29.76S FOG
FISHERS *+     CLOUDY    50  50 100 E6        29.77R
FRANKFORT +      N/A     47  47 100 E12       29.81R
GREENWOOD *+   CLOUDY    57  57 100 E6        29.76F
INDIANAPOLIS   TSTM      58  56  93 NE6       29.75R FOG
-EAGLE CREEK   CLOUDY    55  53  93 NE6       29.75R FOG
KOKOMO *+      CLOUDY    45  37  76 E17G23    29.80F
MARION +       CLOUDY    44  40  88 E13       29.82S
SHELBYVILLE    CLOUDY    59  56  89 E8        29.76R
ZIONSVILLE +   CLOUDY    49  47  96 NE7       29.78S FOG

$$

INZ033-034-041-042-049-050-058-059-281000-
EAST CENTRAL INDIANA

CITY           SKY/WX    TMP DP  RH WIND       PRES   REMARKS
MUNCIE         CLOUDY    46  42  86 E12       29.82R

$$

INZ060-061-067>069-081>083-085>088-281000-
SOUTHWEST INDIANA

CITY           SKY/WX    TMP DP  RH WIND       PRES   REMARKS
EVANSVILLE     CLOUDY    62  61  96 S3        29.74R
HUNTINGBURG *+ CLOUDY    63  57  82 SE7       29.74F
WASHINGTON +   CLOUDY    61  61 100 S7        29.72S

$$

INZ062-063-066-070>080-084-089>092-281000-
SOUTH CENTRAL AND SOUTHEAST INDIANA

CITY           SKY/WX    TMP DP  RH WIND       PRES   REMARKS
BEDFORD +      CLOUDY    61  61 100 SE6       29.74F
BLOOMINGTON    CLOUDY    61  59  93 SE8       29.74S
MADISON *+     CLOUDY    61  59  94 CALM      29.79R
NORTH VERNON + CLOUDY   N/A N/A N/A CALM      29.77R HAZE
SEYMOUR +      CLOUDY    63  63 100 CALM      29.76R

$$





USA.gov is the U.S. government's official web portal to all federal, state and local government web resources and services.